EW3946 Weather Reports


Display with metric or nautical units.
time (UTC)temp
F
wind
direction
speed
MPH
gust
MPH
rain 1hr
in
rain 24hr
in
rain mn
in
humidity
%
barometer
mb
20260505200014 77 1.0 4.0 0.00 0.00 0.00 29 1008.5
20260505194513 76 2.0 7.0 0.00 0.00 0.00 28 1008.5
20260505193053 76 2.0 5.0 0.00 0.00 0.00 28 1008.7
20260505191603 76 2.0 8.0 0.00 0.00 0.00 29 1008.9
20260505190104 75 4.0 10.0 0.00 0.00 0.00 28 1009.3
20260505184603 75 1.0 5.0 0.00 0.00 0.00 28 1009.2
20260505183110 75 0.0 3.0 0.00 0.00 0.00 30 1009.4
20260505181544 73 1.0 4.0 0.00 0.00 0.00 31 1009.6
20260505180045 69 1.0 5.0 0.00 0.00 0.00 33 1010.0
20260505174540 71 3.0 7.0 0.00 0.00 0.00 33 1010.1
20260505173047 71 0.0 6.0 0.00 0.00 0.00 32 1010.1
20260505171544 70 0.0 5.0 0.00 0.00 0.00 33 1010.2
20260505170037 70 1.0 5.0 0.00 0.00 0.00 33 1010.0
20260505164533 69 0.0 5.0 0.00 0.00 0.00 36 1009.9
20260505163032 68 1.0 4.0 0.00 0.00 0.00 36 1010.0
20260505161532 66 1.0 5.0 0.00 0.00 0.00 38 1010.0
20260505153028 63 2.0 7.0 0.00 0.00 0.00 45 1010.3
20260505151533 63 3.0 8.0 0.00 0.00 0.00 46 1009.8
20260505124601 65 5.0 11.0 0.00 0.00 0.00 34 1008.2
20260505123042 65 4.0 12.0 0.00 0.00 0.00 34 1007.9
20260505121541 65 4.0 11.0 0.00 0.00 0.00 34 1007.6
20260505120100 65 2.0 9.0 0.00 0.00 0.00 35 1007.5
20260505114538 65 3.0 9.0 0.00 0.00 0.00 35 1007.3
20260505113043 65 3.0 8.0 0.00 0.00 0.00 35 1007.3
20260505111538 66 3.0 10.0 0.00 0.00 0.00 36 1007.5
20260505101532 67 5.0 11.0 0.00 0.00 0.00 34 1007.4
20260505100031 66 5.0 13.0 0.00 0.00 0.00 34 1007.2
20260505094526 66 3.0 10.0 0.00 0.00 0.00 33 1007.3
20260505093025 65 4.0 11.0 0.00 0.00 0.00 33 1007.2
20260505091527 65 3.0 10.0 0.00 0.00 0.00 33 1007.0
20260505090036 65 4.0 11.0 0.00 0.00 0.00 33 1007.1
20260505084519 64 4.0 11.0 0.00 0.00 0.00 33 1007.0
20260505083015 65 4.0 12.0 0.00 0.00 0.00 32 1006.9
20260505081514 65 5.0 10.0 0.00 0.00 0.00 31 1006.8
20260505080009 65 4.0 8.0 0.00 0.00 0.00 31 1006.6
20260505074508 65 4.0 11.0 0.00 0.00 0.00 32 1006.8
20260505073004 66 4.0 10.0 0.00 0.00 0.00 31 1006.7
20260505071500 67 4.0 12.0 0.00 0.00 0.00 29 1006.8
20260505070101 67 5.0 10.0 0.00 0.00 0.00 29 1006.7
20260505064555 68 6.0 11.0 0.00 0.00 0.00 28 1006.9
20260505063048 69 4.0 10.0 0.00 0.00 0.00 26 1006.7
20260505061552 69 5.0 9.0 0.00 0.00 0.00 26 1006.7
20260505060042 70 5.0 10.0 0.00 0.00 0.00 25 1006.7
20260505054600 70 6.0 11.0 0.00 0.00 0.00 25 1006.6
20260505053052 71 5.0 13.0 0.00 0.00 0.00 24 1006.7
20260505051540 71 4.0 11.0 0.00 0.00 0.00 24 1006.8
20260505041538 69 5.0 9.0 0.00 0.00 0.00 25 1006.9
20260505040038 69 3.0 7.0 0.00 0.00 0.00 25 1007.0
20260505034538 70 3.0 7.0 0.00 0.00 0.00 25 1006.9
20260505033037 71 3.0 9.0 0.00 0.00 0.00 23 1006.9
20260505031546 72 4.0 9.0 0.00 0.00 0.00 22 1006.7
20260505030036 73 5.0 11.0 0.00 0.00 0.00 22 1006.6
20260505024540 73 6.0 11.0 0.00 0.00 0.00 21 1006.5
20260505023030 73 5.0 11.0 0.00 0.00 0.00 21 1006.4
20260505021529 73 4.0 10.0 0.00 0.00 0.00 22 1006.3
20260505020032 74 4.0 9.0 0.00 0.00 0.00 21 1006.1
20260505014534 74 4.0 9.0 0.00 0.00 0.00 22 1005.9
20260505013026 75 5.0 14.0 0.00 0.00 0.00 22 1006.0
20260505011532 76 5.0 12.0 0.00 0.00 0.00 21 1006.1
20260505010026 76 4.0 11.0 0.00 0.00 0.00 21 1006.0
20260505004541 77 4.0 10.0 0.00 0.00 0.00 20 1006.1
20260505003022 78 5.0 14.0 0.00 0.00 0.00 20 1006.2
20260505001520 78 7.0 14.0 0.00 0.00 0.00 19 1006.6
20260505000034 79 7.0 19.0 0.00 0.00 0.00 19 1006.6
20260504234518 79 9.0 17.0 0.00 0.00 0.00 18 1006.8
20260504233017 79 8.0 16.0 0.00 0.00 0.00 18 1006.7
20260504231517 79 7.0 15.0 0.00 0.00 0.00 18 1006.8
20260504230017 80 9.0 18.0 0.00 0.00 0.00 18 1006.9
20260504224516 80 5.0 16.0 0.00 0.00 0.00 17 1006.8
20260504223014 81 9.0 21.0 0.00 0.00 0.00 16 1006.8
20260504221514 81 10.0 17.0 0.00 0.00 0.00 15 1006.9
20260504220014 81 7.0 22.0 0.00 0.00 0.00 15 1007.0
20260504214512 82 9.0 21.0 0.00 0.00 0.00 15 1006.8
20260504213011 83 11.0 20.0 0.00 0.00 0.00 14 1006.9
20260504211509 83 6.0 19.0 0.00 0.00 0.00 16 1007.1
20260504210008 83 9.0 16.0 0.00 0.00 0.00 14 1007.5
20260504204505 83 7.0 17.0 0.00 0.00 0.00 18 1007.5
20260504203006 83 11.0 22.0 0.00 0.00 0.00 18 1007.6
20260504201501 83 8.0 16.0 0.00 0.00 0.00 18 1007.9